Time,TemperatureF,DewpointF,PressureIn,WindDirection,WindDirectionDegrees,WindSpeedMPH,WindSpeedGustMPH,Humidity,HourlyPrecipIn,Conditions,Clouds,dailyrainin,SoftwareType,DateUTC
2013-05-22 00:01:00,72.5,70.3,29.94,East,80,1.0,6.0,93,0.00,,,0.11,meteohub,2013-05-22 04:01:00,
2013-05-22 00:04:00,72.5,70.3,29.94,ENE,67,2.0,6.0,93,0.00,,,0.11,meteohub,2013-05-22 04:04:00,
2013-05-22 00:07:00,72.3,70.2,29.94,ENE,59,1.0,7.0,93,0.00,,,0.00,meteohub,2013-05-22 04:07:00,
2013-05-22 00:10:00,72.3,70.2,29.94,ENE,69,2.0,7.0,93,0.00,,,0.00,meteohub,2013-05-22 04:10:00,
2013-05-22 00:16:00,72.3,70.5,29.94,ENE,69,2.0,7.0,94,0.00,,,0.00,meteohub,2013-05-22 04:16:00,
2013-05-22 00:22:00,72.3,70.5,29.94,ENE,76,5.0,5.0,94,0.00,,,0.00,meteohub,2013-05-22 04:22:00,
2013-05-22 00:28:00,72.1,70.3,29.93,ENE,75,2.0,6.0,94,0.00,,,0.00,meteohub,2013-05-22 04:28:00,
2013-05-22 00:34:00,72.1,70.3,29.93,ENE,75,2.0,6.0,94,0.00,,,0.00,meteohub,2013-05-22 04:34:00,
2013-05-22 00:40:00,72.0,70.2,29.92,ENE,75,2.0,4.0,94,0.00,,,0.00,meteohub,2013-05-22 04:40:00,
2013-05-22 00:46:00,72.0,70.2,29.93,ENE,74,1.0,4.0,94,0.00,,,0.00,meteohub,2013-05-22 04:46:00,
2013-05-22 00:52:00,72.0,70.2,29.93,ENE,74,2.0,5.0,94,0.00,,,0.00,meteohub,2013-05-22 04:52:00,
2013-05-22 00:57:00,72.0,70.2,29.93,ENE,73,4.0,5.0,94,0.00,,,0.00,meteohub,2013-05-22 04:57:00,
2013-05-22 01:02:00,72.1,70.3,29.93,ENE,72,3.0,7.0,94,0.00,,,0.00,meteohub,2013-05-22 05:02:00,
2013-05-22 01:07:00,72.3,70.9,29.93,East,85,2.0,7.0,95,0.00,,,0.00,meteohub,2013-05-22 05:07:00,
2013-05-22 01:12:00,72.5,70.7,29.93,ENE,66,0.0,7.0,94,0.00,,,0.00,meteohub,2013-05-22 05:12:00,
2013-05-22 01:17:00,72.7,70.9,29.93,ENE,66,2.0,5.0,94,0.00,,,0.00,meteohub,2013-05-22 05:17:00,
2013-05-22 01:22:00,72.5,70.7,29.93,East,95,3.0,6.0,94,0.00,,,0.00,meteohub,2013-05-22 05:22:00,
2013-05-22 01:27:00,72.3,70.5,29.92,East,97,3.0,6.0,94,0.00,,,0.00,meteohub,2013-05-22 05:27:00,
2013-05-22 01:32:00,72.5,70.7,29.92,East,94,2.0,6.0,94,0.00,,,0.00,meteohub,2013-05-22 05:32:00,
2013-05-22 01:37:00,72.7,70.9,29.92,ENE,78,0.0,6.0,94,0.00,,,0.00,meteohub,2013-05-22 05:37:00,
2013-05-22 01:42:00,72.7,70.9,29.92,East,90,1.0,6.0,94,0.00,,,0.00,meteohub,2013-05-22 05:42:00,
2013-05-22 01:47:00,72.9,71.1,29.91,SE,138,1.0,5.0,94,0.00,,,0.00,meteohub,2013-05-22 05:47:00,
2013-05-22 01:52:00,72.9,71.1,29.91,ENE,78,0.0,4.0,94,0.00,,,0.00,meteohub,2013-05-22 05:52:00,
2013-05-22 01:57:00,72.9,70.7,29.91,SE,140,1.0,4.0,93,0.00,,,0.00,meteohub,2013-05-22 05:57:00,
2013-05-22 02:02:00,73.0,70.9,29.91,SE,140,2.0,4.0,93,0.00,,,0.00,meteohub,2013-05-22 06:02:00,
2013-05-22 02:07:00,73.0,70.9,29.91,SE,140,0.0,4.0,93,0.00,,,0.00,meteohub,2013-05-22 06:07:00,
2013-05-22 02:12:00,73.0,70.9,29.91,South,183,0.0,4.0,93,0.00,,,0.00,meteohub,2013-05-22 06:12:00,
2013-05-22 02:17:00,73.0,70.9,29.91,South,182,0.0,4.0,93,0.00,,,0.00,meteohub,2013-05-22 06:17:00,
2013-05-22 02:22:00,73.0,70.9,29.91,South,180,0.0,4.0,93,0.00,,,0.00,meteohub,2013-05-22 06:22:00,
2013-05-22 02:27:00,73.2,70.7,29.91,South,179,0.0,3.0,92,0.00,,,0.00,meteohub,2013-05-22 06:27:00,
2013-05-22 02:32:00,73.2,70.7,29.91,SE,140,0.0,4.0,92,0.00,,,0.00,meteohub,2013-05-22 06:32:00,
2013-05-22 02:37:00,73.0,70.3,29.90,SE,142,1.0,5.0,91,0.00,,,0.00,meteohub,2013-05-22 06:37:00,
2013-05-22 02:42:00,73.0,70.0,29.91,SE,140,2.0,6.0,90,0.00,,,0.00,meteohub,2013-05-22 06:42:00,
2013-05-22 02:47:00,73.2,70.2,29.91,SE,144,0.0,6.0,90,0.00,,,0.00,meteohub,2013-05-22 06:47:00,
2013-05-22 02:52:00,73.2,70.2,29.90,SE,143,1.0,5.0,90,0.00,,,0.00,meteohub,2013-05-22 06:52:00,
2013-05-22 02:57:00,73.2,69.8,29.90,SSW,198,0.0,5.0,89,0.00,,,0.00,meteohub,2013-05-22 06:57:00,
2013-05-22 03:02:00,73.2,69.8,29.90,ESE,116,2.0,5.0,89,0.00,,,0.00,meteohub,2013-05-22 07:02:00,
2013-05-22 03:07:00,73.0,69.6,29.90,SW,221,2.0,5.0,89,0.00,,,0.00,meteohub,2013-05-22 07:07:00,
2013-05-22 03:12:00,73.0,70.0,29.90,SSE,157,0.0,6.0,90,0.00,,,0.00,meteohub,2013-05-22 07:12:00,
2013-05-22 03:17:00,72.9,69.8,29.90,SE,144,0.0,6.0,90,0.00,,,0.00,meteohub,2013-05-22 07:17:00,
2013-05-22 03:22:00,72.9,70.2,29.90,SSE,156,0.0,6.0,91,0.00,,,0.00,meteohub,2013-05-22 07:22:00,
2013-05-22 03:27:00,72.7,70.0,29.90,ESE,119,0.0,5.0,91,0.00,,,0.00,meteohub,2013-05-22 07:27:00,
2013-05-22 03:32:00,72.7,70.0,29.90,ESE,119,0.0,4.0,91,0.00,,,0.00,meteohub,2013-05-22 07:32:00,
2013-05-22 03:37:00,72.5,69.8,29.89,South,170,0.0,4.0,91,0.00,,,0.00,meteohub,2013-05-22 07:37:00,
2013-05-22 03:42:00,72.7,70.0,29.89,SE,135,2.0,4.0,91,0.00,,,0.00,meteohub,2013-05-22 07:42:00,
2013-05-22 03:47:00,72.9,70.2,29.89,SSE,148,0.0,4.0,91,0.00,,,0.00,meteohub,2013-05-22 07:47:00,
2013-05-22 03:52:00,72.9,70.2,29.89,SSE,148,2.0,3.0,91,0.00,,,0.00,meteohub,2013-05-22 07:52:00,
2013-05-22 03:57:00,72.9,70.2,29.89,SE,140,1.0,3.0,91,0.00,,,0.00,meteohub,2013-05-22 07:57:00,
2013-05-22 04:02:00,72.9,69.8,29.89,ESE,113,4.0,4.0,90,0.00,,,0.00,meteohub,2013-05-22 08:02:00,
2013-05-22 04:07:00,72.9,69.8,29.89,ESE,123,1.0,4.0,90,0.00,,,0.00,meteohub,2013-05-22 08:07:00,
2013-05-22 04:12:00,72.9,69.8,29.89,South,175,1.0,4.0,90,0.00,,,0.00,meteohub,2013-05-22 08:12:00,
2013-05-22 04:17:00,72.7,69.6,29.89,NE,56,2.0,5.0,90,0.00,,,0.00,meteohub,2013-05-22 08:17:00,
2013-05-22 04:22:00,72.7,69.6,29.89,SSE,149,0.0,5.0,90,0.00,,,0.00,meteohub,2013-05-22 08:22:00,
2013-05-22 04:27:00,72.7,69.6,29.89,SSE,149,0.0,3.0,90,0.00,,,0.00,meteohub,2013-05-22 08:27:00,
2013-05-22 04:32:00,72.7,69.6,29.89,ESE,121,3.0,4.0,90,0.00,,,0.00,meteohub,2013-05-22 08:32:00,
2013-05-22 04:37:00,72.5,69.4,29.89,ESE,121,2.0,4.0,90,0.00,,,0.00,meteohub,2013-05-22 08:37:00,
2013-05-22 04:42:00,72.5,69.4,29.88,ESE,121,0.0,4.0,90,0.00,,,0.00,meteohub,2013-05-22 08:42:00,
2013-05-22 04:47:00,72.3,69.3,29.89,ESE,121,0.0,3.0,90,0.00,,,0.00,meteohub,2013-05-22 08:47:00,
2013-05-22 04:52:00,72.3,69.3,29.89,SE,138,0.0,2.0,90,0.00,,,0.00,meteohub,2013-05-22 08:52:00,
2013-05-22 04:57:00,72.3,69.3,29.89,SSE,160,1.0,3.0,90,0.00,,,0.00,meteohub,2013-05-22 08:57:00,
2013-05-22 05:02:00,72.3,69.3,29.89,SSE,159,1.0,3.0,90,0.00,,,0.00,meteohub,2013-05-22 09:02:00,
2013-05-22 05:07:00,72.3,69.3,29.89,SSE,159,0.0,3.0,90,0.00,,,0.00,meteohub,2013-05-22 09:07:00,
2013-05-22 05:12:00,72.5,69.1,29.89,SSE,159,0.0,3.0,89,0.00,,,0.00,meteohub,2013-05-22 09:12:00,
2013-05-22 05:17:00,72.7,69.3,29.89,SSE,165,1.0,3.0,89,0.00,,,0.00,meteohub,2013-05-22 09:17:00,
2013-05-22 05:22:00,72.9,69.4,29.89,SSE,161,2.0,4.0,89,0.00,,,0.00,meteohub,2013-05-22 09:22:00,
2013-05-22 05:27:00,73.0,69.6,29.89,SSE,161,1.0,4.0,89,0.00,,,0.00,meteohub,2013-05-22 09:27:00,
2013-05-22 05:32:00,73.0,69.6,29.89,SSE,161,3.0,3.0,89,0.00,,,0.00,meteohub,2013-05-22 09:32:00,
2013-05-22 05:37:00,73.0,69.6,29.89,SSE,164,2.0,3.0,89,0.00,,,0.00,meteohub,2013-05-22 09:37:00,
2013-05-22 05:42:00,72.9,69.4,29.89,SSE,155,0.0,3.0,89,0.00,,,0.00,meteohub,2013-05-22 09:42:00,
2013-05-22 05:47:00,73.0,69.6,29.89,ESE,122,2.0,3.0,89,0.00,,,0.00,meteohub,2013-05-22 09:47:00,
2013-05-22 05:52:00,73.0,69.6,29.89,SSE,154,2.0,3.0,89,0.00,,,0.00,meteohub,2013-05-22 09:52:00,
2013-05-22 05:57:00,73.2,69.8,29.89,SSE,166,2.0,6.0,89,0.00,,,0.00,meteohub,2013-05-22 09:57:00,
2013-05-22 06:02:00,73.2,69.8,29.89,SSE,166,0.0,6.0,89,0.00,,,0.00,meteohub,2013-05-22 10:02:00,
2013-05-22 06:07:00,73.2,69.8,29.90,South,180,0.0,6.0,89,0.00,,,0.00,meteohub,2013-05-22 10:07:00,
2013-05-22 06:12:00,73.0,69.6,29.90,South,181,1.0,4.0,89,0.00,,,0.00,meteohub,2013-05-22 10:12:00,
2013-05-22 06:17:00,73.2,69.8,29.90,SE,144,0.0,4.0,89,0.00,,,0.00,meteohub,2013-05-22 10:17:00,
2013-05-22 06:22:00,73.2,69.8,29.90,SE,145,1.0,4.0,89,0.00,,,0.00,meteohub,2013-05-22 10:22:00,
2013-05-22 06:27:00,73.2,69.8,29.91,SSE,154,3.0,4.0,89,0.00,,,0.00,meteohub,2013-05-22 10:27:00,
2013-05-22 06:32:00,73.2,69.8,29.91,ESE,103,1.0,4.0,89,0.00,,,0.00,meteohub,2013-05-22 10:32:00,
2013-05-22 06:37:00,73.4,70.0,29.91,SE,143,2.0,5.0,89,0.00,,,0.00,meteohub,2013-05-22 10:37:00,
2013-05-22 06:42:00,73.4,70.0,29.91,SE,131,0.0,5.0,89,0.00,,,0.00,meteohub,2013-05-22 10:42:00,
2013-05-22 06:47:00,73.6,70.2,29.91,SE,144,0.0,5.0,89,0.00,,,0.00,meteohub,2013-05-22 10:47:00,
2013-05-22 06:52:00,73.6,70.2,29.91,ESE,123,1.0,5.0,89,0.00,,,0.00,meteohub,2013-05-22 10:52:00,
2013-05-22 06:57:00,73.8,70.3,29.91,South,179,2.0,3.0,89,0.00,,,0.00,meteohub,2013-05-22 10:57:00,
2013-05-22 07:02:00,73.8,70.3,29.91,SSE,153,0.0,3.0,89,0.00,,,0.00,meteohub,2013-05-22 11:02:00,
2013-05-22 07:07:00,73.8,70.3,29.91,South,178,2.0,6.0,89,0.00,,,0.00,meteohub,2013-05-22 11:07:00,
2013-05-22 07:12:00,73.8,70.3,29.92,South,189,4.0,6.0,89,0.00,,,0.00,meteohub,2013-05-22 11:12:00,
2013-05-22 07:17:00,73.8,70.3,29.91,South,172,2.0,6.0,89,0.00,,,0.00,meteohub,2013-05-22 11:17:00,
2013-05-22 07:22:00,73.9,70.5,29.91,SSE,163,1.0,5.0,89,0.00,,,0.00,meteohub,2013-05-22 11:22:00,
2013-05-22 07:27:00,73.9,70.5,29.91,SW,236,0.0,5.0,89,0.00,,,0.00,meteohub,2013-05-22 11:27:00,
2013-05-22 07:32:00,73.9,70.5,29.91,SSW,211,1.0,5.0,89,0.00,,,0.00,meteohub,2013-05-22 11:32:00,
2013-05-22 07:37:00,73.9,70.5,29.92,South,185,2.0,5.0,89,0.00,,,0.00,meteohub,2013-05-22 11:37:00,
2013-05-22 07:42:00,73.9,70.5,29.92,SE,129,3.0,4.0,89,0.00,,,0.00,meteohub,2013-05-22 11:42:00,
2013-05-22 07:47:00,73.9,70.5,29.92,South,170,1.0,5.0,89,0.00,,,0.00,meteohub,2013-05-22 11:47:00,
2013-05-22 07:52:00,74.1,70.7,29.92,South,170,1.0,5.0,89,0.00,,,0.00,meteohub,2013-05-22 11:52:00,
2013-05-22 07:57:00,74.1,70.7,29.92,SW,217,0.0,5.0,89,0.00,,,0.00,meteohub,2013-05-22 11:57:00,
2013-05-22 08:02:00,74.1,70.7,29.92,South,182,1.0,4.0,89,0.00,,,0.00,meteohub,2013-05-22 12:02:00,
2013-05-22 08:07:00,74.3,70.9,29.92,SSW,202,2.0,4.0,89,0.00,,,0.00,meteohub,2013-05-22 12:07:00,
2013-05-22 08:12:00,74.5,71.1,29.92,SSW,200,1.0,4.0,89,0.00,,,0.00,meteohub,2013-05-22 12:12:00,
2013-05-22 08:17:00,74.5,71.1,29.92,SSW,200,0.0,4.0,89,0.00,,,0.00,meteohub,2013-05-22 12:17:00,
2013-05-22 08:22:00,74.7,71.2,29.93,SSW,200,1.0,4.0,89,0.00,,,0.00,meteohub,2013-05-22 12:22:00,
2013-05-22 08:27:00,74.8,71.4,29.93,SSW,200,0.0,3.0,89,0.00,,,0.00,meteohub,2013-05-22 12:27:00,
2013-05-22 08:32:00,75.2,71.4,29.93,SSW,200,1.0,2.0,88,0.00,,,0.00,meteohub,2013-05-22 12:32:00,
2013-05-22 08:37:00,75.4,71.2,29.93,SSW,200,0.0,3.0,87,0.00,,,0.00,meteohub,2013-05-22 12:37:00,
2013-05-22 08:42:00,75.4,71.2,29.93,ESE,114,0.0,3.0,87,0.00,,,0.00,meteohub,2013-05-22 12:42:00,
2013-05-22 08:47:00,75.6,71.4,29.93,East,95,2.0,3.0,87,0.00,,,0.00,meteohub,2013-05-22 12:47:00,
2013-05-22 08:52:00,75.7,72.0,29.93,East,95,1.0,4.0,88,0.00,,,0.00,meteohub,2013-05-22 12:52:00,
2013-05-22 08:57:00,75.7,72.0,29.94,ESE,106,3.0,5.0,88,0.00,,,0.00,meteohub,2013-05-22 12:57:00,
2013-05-22 09:02:00,75.9,71.8,29.94,ESE,106,1.0,5.0,87,0.00,,,0.00,meteohub,2013-05-22 13:02:00,
2013-05-22 09:07:00,76.3,71.8,29.94,SSW,212,3.0,5.0,86,0.00,,,0.00,meteohub,2013-05-22 13:07:00,
2013-05-22 09:12:00,76.5,72.3,29.94,SE,144,1.0,5.0,87,0.00,,,0.00,meteohub,2013-05-22 13:12:00,
2013-05-22 09:17:00,76.6,72.5,29.94,SE,131,0.0,5.0,87,0.00,,,0.00,meteohub,2013-05-22 13:17:00,
2013-05-22 09:22:00,76.8,72.3,29.94,SE,146,2.0,5.0,86,0.00,,,0.00,meteohub,2013-05-22 13:22:00,
2013-05-22 09:27:00,76.8,72.0,29.94,ENE,78,3.0,7.0,85,0.00,,,0.00,meteohub,2013-05-22 13:27:00,
2013-05-22 09:32:00,77.0,72.5,29.94,East,86,1.0,7.0,86,0.00,,,0.00,meteohub,2013-05-22 13:32:00,
2013-05-22 09:37:00,77.4,72.5,29.94,SE,140,1.0,7.0,85,0.00,,,0.00,meteohub,2013-05-22 13:37:00,
2013-05-22 09:42:00,77.7,72.9,29.94,ENE,78,4.0,7.0,85,0.00,,,0.00,meteohub,2013-05-22 13:42:00,
2013-05-22 09:47:00,78.1,72.9,29.94,SSW,195,2.0,7.0,84,0.00,,,0.00,meteohub,2013-05-22 13:47:00,
2013-05-22 09:52:00,78.1,72.9,29.94,ENE,74,5.0,8.0,84,0.00,,,0.00,meteohub,2013-05-22 13:52:00,
2013-05-22 09:57:00,77.7,72.5,29.94,NE,48,3.0,8.0,84,0.00,,,0.00,meteohub,2013-05-22 13:57:00,
2013-05-22 10:02:00,77.9,72.7,29.94,ESE,119,4.0,8.0,84,0.00,,,0.00,meteohub,2013-05-22 14:02:00,
2013-05-22 10:07:00,77.7,72.1,29.95,SSE,148,2.0,7.0,83,0.00,,,0.00,meteohub,2013-05-22 14:07:00,
2013-05-22 10:12:00,78.1,72.9,29.95,SE,137,0.0,7.0,84,0.00,,,0.00,meteohub,2013-05-22 14:12:00,
2013-05-22 10:17:00,78.8,73.2,29.95,ESE,108,1.0,8.0,83,0.00,,,0.00,meteohub,2013-05-22 14:17:00,
2013-05-22 10:22:00,79.5,73.2,29.95,SE,138,4.0,8.0,81,0.00,,,0.00,meteohub,2013-05-22 14:22:00,
2013-05-22 10:27:00,80.1,73.4,29.95,SE,136,4.0,6.0,80,0.00,,,0.00,meteohub,2013-05-22 14:27:00,
2013-05-22 10:32:00,80.4,73.2,29.94,SE,137,5.0,7.0,79,0.00,,,0.00,meteohub,2013-05-22 14:32:00,
2013-05-22 10:37:00,80.2,72.7,29.95,ESE,107,1.0,7.0,78,0.00,,,0.00,meteohub,2013-05-22 14:37:00,
2013-05-22 10:42:00,80.2,73.0,29.95,ESE,114,1.0,7.0,79,0.00,,,0.00,meteohub,2013-05-22 14:42:00,
2013-05-22 10:47:00,80.4,72.9,29.95,SE,129,4.0,8.0,78,0.00,,,0.00,meteohub,2013-05-22 14:47:00,
2013-05-22 10:52:00,80.8,73.2,29.95,ESE,121,1.0,8.0,78,0.00,,,0.00,meteohub,2013-05-22 14:52:00,
2013-05-22 10:57:00,81.0,72.7,29.95,ESE,113,3.0,8.0,76,0.00,,,0.00,meteohub,2013-05-22 14:57:00,
2013-05-22 11:02:00,81.0,73.0,29.95,SE,136,0.0,7.0,77,0.00,,,0.00,meteohub,2013-05-22 15:02:00,
2013-05-22 11:07:00,81.1,73.2,29.95,SE,128,3.0,7.0,77,0.00,,,0.00,meteohub,2013-05-22 15:07:00,
2013-05-22 11:12:00,80.8,72.9,29.96,SE,131,2.0,7.0,77,0.00,,,0.00,meteohub,2013-05-22 15:12:00,
2013-05-22 11:17:00,80.4,73.8,29.95,ESE,121,1.0,7.0,80,0.00,,,0.00,meteohub,2013-05-22 15:17:00,
2013-05-22 11:22:00,80.2,74.3,29.95,ESE,121,0.0,7.0,82,0.00,,,0.00,meteohub,2013-05-22 15:22:00,
2013-05-22 11:27:00,80.1,73.8,29.95,ESE,121,0.0,4.0,81,0.00,,,0.00,meteohub,2013-05-22 15:27:00,
2013-05-22 11:32:00,79.3,73.4,29.96,ESE,121,2.0,3.0,82,0.00,,,0.00,meteohub,2013-05-22 15:32:00,
2013-05-22 11:37:00,78.4,72.9,29.96,ESE,104,0.0,5.0,83,0.00,,,0.00,meteohub,2013-05-22 15:37:00,
2013-05-22 11:42:00,77.9,72.7,29.96,ESE,103,0.0,5.0,84,0.00,,,0.00,meteohub,2013-05-22 15:42:00,
2013-05-22 11:47:00,77.5,72.7,29.96,ESE,103,1.0,5.0,85,0.00,,,0.00,meteohub,2013-05-22 15:47:00,
2013-05-22 11:52:00,77.9,73.4,29.95,East,101,1.0,4.0,86,0.00,,,0.00,meteohub,2013-05-22 15:52:00,
2013-05-22 11:57:00,79.0,73.4,29.95,East,92,1.0,5.0,83,0.00,,,0.00,meteohub,2013-05-22 15:57:00,
2013-05-22 12:02:00,79.9,73.6,29.95,ENE,78,3.0,5.0,81,0.00,,,0.00,meteohub,2013-05-22 16:02:00,
2013-05-22 12:07:00,79.9,72.9,29.95,SSE,147,2.0,8.0,79,0.00,,,0.00,meteohub,2013-05-22 16:07:00,
2013-05-22 12:12:00,80.4,72.9,29.95,ENE,63,3.0,8.0,78,0.00,,,0.00,meteohub,2013-05-22 16:12:00,
2013-05-22 12:17:00,81.0,72.7,29.95,ENE,70,2.0,8.0,76,0.00,,,0.00,meteohub,2013-05-22 16:17:00,
2013-05-22 12:22:00,81.3,73.4,29.95,SW,218,1.0,8.0,77,0.00,,,0.00,meteohub,2013-05-22 16:22:00,
2013-05-22 12:27:00,82.6,73.4,29.94,NE,54,2.0,8.0,74,0.00,,,0.00,meteohub,2013-05-22 16:27:00,
2013-05-22 12:32:00,83.5,73.6,29.94,East,95,1.0,5.0,72,0.00,,,0.00,meteohub,2013-05-22 16:32:00,
2013-05-22 12:37:00,83.5,73.0,29.94,ENE,71,1.0,5.0,71,0.00,,,0.00,meteohub,2013-05-22 16:37:00,
2013-05-22 12:42:00,83.1,72.7,29.94,SE,130,0.0,5.0,71,0.00,,,0.00,meteohub,2013-05-22 16:42:00,
2013-05-22 12:47:00,83.1,73.2,29.94,NNW,332,1.0,5.0,72,0.00,,,0.00,meteohub,2013-05-22 16:47:00,
2013-05-22 12:52:00,82.8,72.9,29.94,NNW,332,2.0,4.0,72,0.00,,,0.00,meteohub,2013-05-22 16:52:00,
2013-05-22 12:57:00,82.2,72.3,29.94,NNW,330,1.0,4.0,72,0.00,,,0.00,meteohub,2013-05-22 16:57:00,
2013-05-22 13:02:00,82.0,73.4,29.94,WNW,284,1.0,4.0,75,0.00,,,0.00,meteohub,2013-05-22 17:02:00,
2013-05-22 13:07:00,82.9,73.4,29.94,North,5,0.0,4.0,73,0.00,,,0.00,meteohub,2013-05-22 17:07:00,
2013-05-22 13:12:00,83.5,73.0,29.94,WSW,238,4.0,4.0,71,0.00,,,0.00,meteohub,2013-05-22 17:12:00,
2013-05-22 13:17:00,83.5,73.6,29.93,NE,51,1.0,8.0,72,0.00,,,0.00,meteohub,2013-05-22 17:17:00,
2013-05-22 13:22:00,84.0,73.9,29.94,NW,304,0.0,8.0,72,0.00,,,0.00,meteohub,2013-05-22 17:22:00,
2013-05-22 13:27:00,84.9,73.6,29.93,West,261,1.0,8.0,69,0.00,,,0.00,meteohub,2013-05-22 17:27:00,
2013-05-22 13:32:00,85.1,72.9,29.93,West,277,6.0,8.0,67,0.00,,,0.00,meteohub,2013-05-22 17:32:00,
2013-05-22 13:37:00,83.7,73.2,29.93,NW,319,2.0,9.0,71,0.00,,,0.00,meteohub,2013-05-22 17:37:00,
2013-05-22 13:42:00,84.2,72.5,29.93,SSW,206,1.0,9.0,68,0.00,,,0.00,meteohub,2013-05-22 17:42:00,
2013-05-22 13:47:00,84.0,72.3,29.93,SSW,212,2.0,9.0,68,0.00,,,0.00,meteohub,2013-05-22 17:47:00,
2013-05-22 13:52:00,84.7,73.0,29.93,East,93,2.0,7.0,68,0.00,,,0.00,meteohub,2013-05-22 17:52:00,
2013-05-22 13:57:00,85.5,72.9,29.92,WNW,298,1.0,7.0,66,0.00,,,0.00,meteohub,2013-05-22 17:57:00,
2013-05-22 14:02:00,85.8,72.7,29.92,West,278,1.0,5.0,65,0.00,,,0.00,meteohub,2013-05-22 18:02:00,
2013-05-22 14:07:00,85.3,71.8,29.92,WNW,291,1.0,6.0,64,0.00,,,0.00,meteohub,2013-05-22 18:07:00,
2013-05-22 14:12:00,85.3,72.1,29.92,WSW,243,1.0,6.0,65,0.00,,,0.00,meteohub,2013-05-22 18:12:00,
2013-05-22 14:17:00,84.6,72.0,29.92,West,265,2.0,7.0,66,0.00,,,0.00,meteohub,2013-05-22 18:17:00,
2013-05-22 14:22:00,85.1,71.6,29.92,WNW,290,1.0,9.0,64,0.00,,,0.00,meteohub,2013-05-22 18:22:00,
2013-05-22 14:27:00,85.5,71.4,29.91,SSE,148,2.0,9.0,63,0.00,,,0.00,meteohub,2013-05-22 18:27:00,
2013-05-22 14:32:00,85.6,72.1,29.91,NW,309,1.0,9.0,64,0.00,,,0.00,meteohub,2013-05-22 18:32:00,
2013-05-22 14:37:00,85.6,72.1,29.91,NW,317,3.0,7.0,64,0.00,,,0.00,meteohub,2013-05-22 18:37:00,
2013-05-22 14:42:00,85.5,72.3,29.91,WSW,249,2.0,8.0,65,0.00,,,0.00,meteohub,2013-05-22 18:42:00,
2013-05-22 14:47:00,86.2,73.4,29.91,NE,41,3.0,8.0,66,0.00,,,0.00,meteohub,2013-05-22 18:47:00,
2013-05-22 14:52:00,86.5,72.9,29.91,ENE,64,2.0,8.0,64,0.00,,,0.00,meteohub,2013-05-22 18:52:00,
2013-05-22 14:57:00,86.4,71.8,29.91,NW,313,4.0,7.0,62,0.00,,,0.00,meteohub,2013-05-22 18:57:00,
2013-05-22 15:02:00,86.0,73.2,29.90,NNE,17,1.0,8.0,66,0.00,,,0.00,meteohub,2013-05-22 19:02:00,
2013-05-22 15:07:00,86.2,71.1,29.90,WNW,287,1.0,8.0,61,0.00,,,0.00,meteohub,2013-05-22 19:07:00,
2013-05-22 15:12:00,85.6,71.1,29.90,WSW,244,2.0,9.0,62,0.00,,,0.00,meteohub,2013-05-22 19:12:00,
2013-05-22 15:17:00,86.0,71.4,29.90,South,179,3.0,9.0,62,0.00,,,0.00,meteohub,2013-05-22 19:17:00,
2013-05-22 15:22:00,85.8,71.2,29.90,NW,313,3.0,9.0,62,0.00,,,0.00,meteohub,2013-05-22 19:22:00,
2013-05-22 15:27:00,86.2,72.1,29.90,NW,317,2.0,8.0,63,0.00,,,0.00,meteohub,2013-05-22 19:27:00,
2013-05-22 15:32:00,86.2,71.6,29.89,NE,41,2.0,8.0,62,0.00,,,0.00,meteohub,2013-05-22 19:32:00,
2013-05-22 15:37:00,86.4,71.8,29.90,NW,315,1.0,8.0,62,0.00,,,0.00,meteohub,2013-05-22 19:37:00,
2013-05-22 15:42:00,86.9,71.8,29.89,NW,312,3.0,6.0,61,0.00,,,0.00,meteohub,2013-05-22 19:42:00,
2013-05-22 15:47:00,85.6,70.7,29.90,West,277,7.0,9.0,61,0.00,,,0.00,meteohub,2013-05-22 19:47:00,
2013-05-22 15:52:00,85.5,72.0,29.89,NNW,328,4.0,12.0,64,0.00,,,0.00,meteohub,2013-05-22 19:52:00,
2013-05-22 15:57:00,86.2,71.1,29.89,West,266,3.0,12.0,61,0.00,,,0.00,meteohub,2013-05-22 19:57:00,
2013-05-22 16:02:00,86.2,71.1,29.89,West,275,3.0,12.0,61,0.00,,,0.00,meteohub,2013-05-22 20:02:00,
2013-05-22 16:07:00,85.8,70.9,29.89,NNW,338,2.0,11.0,61,0.00,,,0.00,meteohub,2013-05-22 20:07:00,
2013-05-22 16:12:00,85.8,71.2,29.88,NW,319,1.0,11.0,62,0.00,,,0.00,meteohub,2013-05-22 20:12:00,
2013-05-22 16:17:00,86.0,72.0,29.88,North,350,1.0,11.0,63,0.00,,,0.00,meteohub,2013-05-22 20:17:00,
2013-05-22 16:22:00,85.8,71.2,29.88,WNW,283,4.0,10.0,62,0.00,,,0.00,meteohub,2013-05-22 20:22:00,
2013-05-22 16:27:00,84.9,70.9,29.88,NE,53,0.0,10.0,63,0.00,,,0.00,meteohub,2013-05-22 20:27:00,
2013-05-22 16:32:00,84.9,71.8,29.88,NNW,332,2.0,10.0,65,0.00,,,0.00,meteohub,2013-05-22 20:32:00,
2013-05-22 16:37:00,85.5,71.4,29.88,NNE,16,2.0,9.0,63,0.00,,,0.00,meteohub,2013-05-22 20:37:00,
2013-05-22 16:42:00,85.8,72.1,29.87,WSW,240,1.0,8.0,64,0.00,,,0.00,meteohub,2013-05-22 20:42:00,
2013-05-22 16:47:00,86.4,72.7,29.87,ENE,74,3.0,8.0,64,0.00,,,0.00,meteohub,2013-05-22 20:47:00,
2013-05-22 16:52:00,86.9,72.3,29.88,NW,312,3.0,6.0,62,0.00,,,0.00,meteohub,2013-05-22 20:52:00,
2013-05-22 16:57:00,86.9,72.3,29.88,NNE,26,1.0,5.0,62,0.00,,,0.00,meteohub,2013-05-22 20:57:00,
2013-05-22 17:03:00,86.5,72.0,29.88,WSW,250,3.0,5.0,62,0.00,,,0.00,meteohub,2013-05-22 21:03:00,
2013-05-22 17:09:00,86.2,72.5,29.88,WNW,302,4.0,6.0,64,0.00,,,0.00,meteohub,2013-05-22 21:09:00,
2013-05-22 17:15:00,85.6,72.1,29.88,West,262,5.0,6.0,64,0.00,,,0.00,meteohub,2013-05-22 21:15:00,
2013-05-22 17:21:00,84.7,72.1,29.88,East,92,2.0,10.0,66,0.00,,,0.00,meteohub,2013-05-22 21:21:00,
2013-05-22 17:27:00,85.8,71.8,29.88,WSW,238,3.0,10.0,63,0.00,,,0.00,meteohub,2013-05-22 21:27:00,
2013-05-22 17:32:00,86.5,72.5,29.87,NE,49,3.0,8.0,63,0.00,,,0.00,meteohub,2013-05-22 21:32:00,
2013-05-22 17:37:00,86.5,72.5,29.88,WNW,300,1.0,5.0,63,0.00,,,0.00,meteohub,2013-05-22 21:37:00,
2013-05-22 17:42:00,86.5,72.9,29.87,NW,316,3.0,5.0,64,0.00,,,0.00,meteohub,2013-05-22 21:42:00,
2013-05-22 17:47:00,85.3,72.1,29.87,WNW,292,2.0,9.0,65,0.00,,,0.00,meteohub,2013-05-22 21:47:00,
2013-05-22 17:52:00,84.7,72.5,29.87,ESE,107,2.0,9.0,67,0.00,,,0.00,meteohub,2013-05-22 21:52:00,
2013-05-22 17:57:00,84.9,72.7,29.87,WSW,246,2.0,9.0,67,0.00,,,0.00,meteohub,2013-05-22 21:57:00,
2013-05-22 18:02:00,84.7,72.1,29.87,NE,44,1.0,6.0,66,0.00,,,0.00,meteohub,2013-05-22 22:02:00,
2013-05-22 18:07:00,84.6,71.4,29.87,WSW,240,0.0,6.0,65,0.00,,,0.00,meteohub,2013-05-22 22:07:00,
2013-05-22 18:12:00,84.7,72.1,29.87,NE,42,1.0,6.0,66,0.00,,,0.00,meteohub,2013-05-22 22:12:00,
2013-05-22 18:17:00,84.9,71.8,29.88,NNE,13,1.0,5.0,65,0.00,,,0.00,meteohub,2013-05-22 22:17:00,
2013-05-22 18:22:00,84.7,71.6,29.88,NNE,22,2.0,7.0,65,0.00,,,0.00,meteohub,2013-05-22 22:22:00,
2013-05-22 18:27:00,84.4,71.8,29.88,NW,325,0.0,7.0,66,0.00,,,0.00,meteohub,2013-05-22 22:27:00,
2013-05-22 18:32:00,84.0,71.4,29.88,WSW,254,1.0,6.0,66,0.00,,,0.00,meteohub,2013-05-22 22:32:00,
2013-05-22 18:37:00,84.0,72.0,29.88,WNW,288,2.0,6.0,67,0.00,,,0.00,meteohub,2013-05-22 22:37:00,
2013-05-22 18:42:00,83.8,71.2,29.89,SW,220,1.0,6.0,66,0.00,,,0.00,meteohub,2013-05-22 22:42:00,
2013-05-22 18:47:00,83.5,71.4,29.88,NE,44,3.0,6.0,67,0.00,,,0.00,meteohub,2013-05-22 22:47:00,
2013-05-22 18:52:00,82.9,70.9,29.88,NE,49,1.0,5.0,67,0.00,,,0.00,meteohub,2013-05-22 22:52:00,
2013-05-22 18:57:00,82.4,70.7,29.88,NE,50,1.0,6.0,68,0.00,,,0.00,meteohub,2013-05-22 22:57:00,
2013-05-22 19:02:00,82.2,71.4,29.88,ENE,69,0.0,6.0,70,0.00,,,0.00,meteohub,2013-05-22 23:02:00,
2013-05-22 19:07:00,82.6,70.9,29.88,East,97,1.0,6.0,68,0.00,,,0.00,meteohub,2013-05-22 23:07:00,
2013-05-22 19:12:00,82.6,71.4,29.89,East,97,0.0,5.0,69,0.00,,,0.00,meteohub,2013-05-22 23:12:00,
2013-05-22 19:17:00,82.2,71.1,29.89,East,98,0.0,3.0,69,0.00,,,0.00,meteohub,2013-05-22 23:17:00,
2013-05-22 19:22:00,81.9,70.7,29.89,East,98,1.0,3.0,69,0.00,,,0.00,meteohub,2013-05-22 23:22:00,
2013-05-22 19:27:00,81.5,71.2,29.89,SSW,206,1.0,3.0,71,0.00,,,0.00,meteohub,2013-05-22 23:27:00,
2013-05-22 19:32:00,81.0,71.1,29.89,SSW,207,0.0,4.0,72,0.00,,,0.00,meteohub,2013-05-22 23:32:00,
2013-05-22 19:37:00,80.4,70.9,29.89,SSW,207,0.0,4.0,73,0.00,,,0.00,meteohub,2013-05-22 23:37:00,
2013-05-22 19:42:00,80.1,71.1,29.89,SSW,207,0.0,3.0,74,0.00,,,0.00,meteohub,2013-05-22 23:42:00,
2013-05-22 19:47:00,79.9,71.2,29.89,SSW,207,1.0,3.0,75,0.00,,,0.00,meteohub,2013-05-22 23:47:00,
2013-05-22 19:52:00,79.3,70.7,29.90,SSW,207,0.0,3.0,75,0.00,,,0.00,meteohub,2013-05-22 23:52:00,
2013-05-22 19:57:00,79.2,70.9,29.90,SSW,207,0.0,3.0,76,0.00,,,0.00,meteohub,2013-05-22 23:57:00,
2013-05-22 20:02:00,79.0,70.7,29.90,WSW,244,2.0,3.0,76,0.00,,,0.00,meteohub,2013-05-23 00:02:00,
2013-05-22 20:07:00,78.6,70.9,29.90,WSW,244,0.0,4.0,77,0.00,,,0.00,meteohub,2013-05-23 00:07:00,
2013-05-22 20:12:00,78.4,70.7,29.90,WSW,244,0.0,4.0,77,0.00,,,0.00,meteohub,2013-05-23 00:12:00,
2013-05-22 20:17:00,78.3,70.5,29.91,WSW,244,0.0,4.0,77,0.00,,,0.00,meteohub,2013-05-23 00:17:00,
2013-05-22 20:22:00,78.3,70.9,29.90,WSW,244,0.0,1.0,78,0.00,,,0.00,meteohub,2013-05-23 00:22:00,
2013-05-22 20:27:00,78.3,70.9,29.91,WSW,244,0.0,1.0,78,0.00,,,0.00,meteohub,2013-05-23 00:27:00,
2013-05-22 20:32:00,78.1,70.7,29.91,WSW,244,2.0,3.0,78,0.00,,,0.00,meteohub,2013-05-23 00:32:00,
2013-05-22 20:37:00,78.1,71.1,29.91,East,94,0.0,3.0,79,0.00,,,0.00,meteohub,2013-05-23 00:37:00,
2013-05-22 20:42:00,78.1,71.1,29.91,East,94,1.0,3.0,79,0.00,,,0.00,meteohub,2013-05-23 00:42:00,
2013-05-22 20:47:00,77.9,70.9,29.90,East,94,0.0,3.0,79,0.00,,,0.00,meteohub,2013-05-23 00:47:00,
2013-05-22 20:52:00,77.7,70.7,29.91,East,89,0.0,3.0,79,0.00,,,0.00,meteohub,2013-05-23 00:52:00,
2013-05-22 20:57:00,77.7,70.7,29.91,ENE,70,1.0,5.0,79,0.00,,,0.00,meteohub,2013-05-23 00:57:00,
2013-05-22 21:02:00,77.7,70.7,29.91,ENE,70,0.0,5.0,79,0.00,,,0.00,meteohub,2013-05-23 01:02:00,
2013-05-22 21:07:00,77.7,71.1,29.91,ENE,70,0.0,5.0,80,0.00,,,0.00,meteohub,2013-05-23 01:07:00,
2013-05-22 21:12:00,77.7,71.1,29.91,ENE,70,0.0,3.0,80,0.00,,,0.00,meteohub,2013-05-23 01:12:00,
2013-05-22 21:17:00,77.5,70.9,29.91,ENE,70,1.0,2.0,80,0.00,,,0.00,meteohub,2013-05-23 01:17:00,
2013-05-22 21:22:00,77.5,71.2,29.91,ENE,71,1.0,1.0,81,0.00,,,0.00,meteohub,2013-05-23 01:22:00,
2013-05-22 21:27:00,77.7,71.1,29.91,ENE,71,1.0,3.0,80,0.00,,,0.00,meteohub,2013-05-23 01:27:00,
2013-05-22 21:32:00,78.1,71.4,29.91,ENE,71,0.0,3.0,80,0.00,,,0.00,meteohub,2013-05-23 01:32:00,
2013-05-22 21:37:00,78.1,71.4,29.91,ENE,71,0.0,2.0,80,0.00,,,0.00,meteohub,2013-05-23 01:37:00,
2013-05-22 21:42:00,77.7,71.4,29.91,ENE,71,0.0,2.0,81,0.00,,,0.00,meteohub,2013-05-23 01:42:00,
2013-05-22 21:47:00,77.5,71.2,29.91,ENE,71,0.0,1.0,81,0.00,,,0.00,meteohub,2013-05-23 01:47:00,
2013-05-22 21:52:00,77.4,71.4,29.91,ENE,71,0.0,1.0,82,0.00,,,0.00,meteohub,2013-05-23 01:52:00,
2013-05-22 21:57:00,77.4,71.4,29.91,ENE,71,0.0,2.0,82,0.00,,,0.00,meteohub,2013-05-23 01:57:00,
2013-05-22 22:02:00,77.2,71.2,29.91,ENE,71,0.0,2.0,82,0.00,,,0.00,meteohub,2013-05-23 02:02:00,
2013-05-22 22:07:00,76.8,71.2,29.91,ENE,71,0.0,2.0,83,0.00,,,0.00,meteohub,2013-05-23 02:07:00,
2013-05-22 22:12:00,76.6,71.1,29.91,ENE,71,0.0,1.0,83,0.00,,,0.00,meteohub,2013-05-23 02:12:00,
2013-05-22 22:17:00,76.5,71.2,29.91,ENE,71,0.0,1.0,84,0.00,,,0.00,meteohub,2013-05-23 02:17:00,
2013-05-22 22:22:00,75.9,71.1,29.91,ENE,71,0.0,1.0,85,0.00,,,0.00,meteohub,2013-05-23 02:22:00,
2013-05-22 22:27:00,75.7,71.2,29.92,ENE,71,0.0,1.0,86,0.00,,,0.00,meteohub,2013-05-23 02:27:00,
2013-05-22 22:32:00,75.6,71.1,29.92,ENE,71,0.0,1.0,86,0.00,,,0.00,meteohub,2013-05-23 02:32:00,
2013-05-22 22:37:00,75.4,71.2,29.93,ENE,71,1.0,1.0,87,0.00,,,0.00,meteohub,2013-05-23 02:37:00,
2013-05-22 22:42:00,75.4,71.2,29.93,ENE,71,0.0,2.0,87,0.00,,,0.00,meteohub,2013-05-23 02:42:00,
2013-05-22 22:47:00,75.4,71.2,29.93,ENE,71,0.0,2.0,87,0.00,,,0.00,meteohub,2013-05-23 02:47:00,
2013-05-22 22:52:00,75.6,71.4,29.93,ENE,71,0.0,2.0,87,0.00,,,0.00,meteohub,2013-05-23 02:52:00,
2013-05-22 22:57:00,75.6,71.4,29.93,ENE,71,0.0,2.0,87,0.00,,,0.00,meteohub,2013-05-23 02:57:00,
2013-05-22 23:02:00,75.7,71.6,29.93,ENE,71,1.0,2.0,87,0.00,,,0.00,meteohub,2013-05-23 03:02:00,
2013-05-22 23:07:00,75.7,71.6,29.93,ENE,71,1.0,2.0,87,0.00,,,0.00,meteohub,2013-05-23 03:07:00,
2013-05-22 23:12:00,75.9,71.4,29.93,ENE,71,0.0,2.0,86,0.00,,,0.00,meteohub,2013-05-23 03:12:00,
2013-05-22 23:17:00,75.9,71.4,29.93,ENE,71,0.0,2.0,86,0.00,,,0.00,meteohub,2013-05-23 03:17:00,
2013-05-22 23:22:00,76.1,71.6,29.93,ENE,71,0.0,1.0,86,0.00,,,0.00,meteohub,2013-05-23 03:22:00,
2013-05-22 23:29:00,76.3,71.4,29.92,ENE,71,0.0,1.0,85,0.00,,,0.00,meteohub,2013-05-23 03:29:00,
2013-05-22 23:35:00,76.5,71.6,29.91,ENE,71,0.0,1.0,85,0.00,,,0.00,meteohub,2013-05-23 03:35:00,
2013-05-22 23:41:00,76.5,71.6,29.91,ENE,71,0.0,2.0,85,0.00,,,0.00,meteohub,2013-05-23 03:41:00,
2013-05-22 23:47:00,76.5,71.6,29.92,ENE,71,0.0,2.0,85,0.00,,,0.00,meteohub,2013-05-23 03:47:00,
2013-05-22 23:52:00,76.3,71.4,29.92,ENE,71,0.0,4.0,85,0.00,,,0.00,meteohub,2013-05-23 03:52:00,
2013-05-22 23:57:00,75.9,71.1,29.92,ENE,71,0.0,4.0,85,0.00,,,0.00,meteohub,2013-05-23 03:57:00,